Time,TemperatureF,DewpointF,PressureIn,WindDirection,WindDirectionDegrees,WindSpeedMPH,WindSpeedGustMPH,Humidity,HourlyPrecipIn,Conditions,Clouds,dailyrainin,SolarRadiationWatts/m^2,SoftwareType,DateUTC
2013-10-24 00:03:00,34.0,28.4,30.23,North,0,1.0,3.0,80,0.00,,,0.00,0.0,meteohub,2013-10-24 05:03:00,
2013-10-24 00:08:00,34.0,28.4,30.23,NW,319,1.0,3.0,80,0.00,,,0.00,0.0,meteohub,2013-10-24 05:08:00,
2013-10-24 00:13:00,34.0,28.4,30.23,NNW,333,0.0,2.0,80,0.00,,,0.00,0.0,meteohub,2013-10-24 05:13:00,
2013-10-24 00:18:00,34.0,28.4,30.23,NNW,333,0.0,2.0,80,0.00,,,0.00,0.0,meteohub,2013-10-24 05:18:00,
2013-10-24 00:23:00,34.0,28.4,30.23,NW,323,0.0,2.0,80,0.00,,,0.00,0.0,meteohub,2013-10-24 05:23:00,
2013-10-24 00:28:00,34.0,28.8,30.23,NW,323,0.0,2.0,81,0.00,,,0.00,0.0,meteohub,2013-10-24 05:28:00,
2013-10-24 00:33:00,34.0,28.8,30.24,West,277,0.0,2.0,81,0.00,,,0.00,0.0,meteohub,2013-10-24 05:33:00,
2013-10-24 00:38:00,34.0,28.8,30.24,West,277,0.0,3.0,81,0.00,,,0.00,0.0,meteohub,2013-10-24 05:38:00,
2013-10-24 00:43:00,33.8,28.9,30.24,West,277,0.0,3.0,82,0.00,,,0.00,0.0,meteohub,2013-10-24 05:43:00,
2013-10-24 00:48:00,33.8,28.9,30.24,West,277,1.0,3.0,82,0.00,,,0.00,0.0,meteohub,2013-10-24 05:48:00,
2013-10-24 00:53:00,33.8,28.9,30.24,West,277,0.0,2.0,82,0.00,,,0.00,0.0,meteohub,2013-10-24 05:53:00,
2013-10-24 00:58:00,33.8,28.9,30.24,West,277,0.0,2.0,82,0.00,,,0.00,0.0,meteohub,2013-10-24 05:58:00,
2013-10-24 01:03:00,33.8,28.9,30.24,West,277,1.0,2.0,82,0.00,,,0.00,0.0,meteohub,2013-10-24 06:03:00,
2013-10-24 01:08:00,33.6,28.8,30.24,West,277,1.0,2.0,82,0.00,,,0.00,0.0,meteohub,2013-10-24 06:08:00,
2013-10-24 01:13:00,33.6,28.8,30.24,West,277,0.0,2.0,82,0.00,,,0.00,0.0,meteohub,2013-10-24 06:13:00,
2013-10-24 01:19:00,33.6,28.8,30.24,West,277,0.0,2.0,82,0.00,,,0.00,0.0,meteohub,2013-10-24 06:19:00,
2013-10-24 01:23:00,33.6,28.8,30.24,West,277,0.0,2.0,82,0.00,,,0.00,0.0,meteohub,2013-10-24 06:23:00,
2013-10-24 01:29:00,33.6,28.9,30.25,West,277,0.0,1.0,83,0.00,,,0.00,0.0,meteohub,2013-10-24 06:29:00,
2013-10-24 01:34:00,33.6,28.9,30.24,West,277,0.0,1.0,83,0.00,,,0.00,0.0,meteohub,2013-10-24 06:34:00,
2013-10-24 01:39:00,33.6,28.9,30.25,West,277,0.0,1.0,83,0.00,,,0.00,0.0,meteohub,2013-10-24 06:39:00,
2013-10-24 01:44:00,33.6,28.9,30.25,West,277,0.0,2.0,83,0.00,,,0.00,0.0,meteohub,2013-10-24 06:44:00,
2013-10-24 01:49:00,33.6,29.3,30.25,West,277,0.0,2.0,84,0.00,,,0.00,0.0,meteohub,2013-10-24 06:49:00,
2013-10-24 01:54:00,33.6,29.3,30.25,West,277,0.0,2.0,84,0.00,,,0.00,0.0,meteohub,2013-10-24 06:54:00,
2013-10-24 01:59:00,33.6,29.3,30.25,West,277,0.0,1.0,84,0.00,,,0.00,0.0,meteohub,2013-10-24 06:59:00,
2013-10-24 02:04:00,33.6,29.3,30.25,West,277,0.0,2.0,84,0.00,,,0.00,0.0,meteohub,2013-10-24 07:04:00,
2013-10-24 02:09:00,33.6,29.7,30.25,West,277,0.0,2.0,85,0.00,,,0.00,0.0,meteohub,2013-10-24 07:09:00,
2013-10-24 02:14:00,33.6,29.7,30.25,West,277,1.0,2.0,85,0.00,,,0.00,0.0,meteohub,2013-10-24 07:14:00,
2013-10-24 02:19:00,33.8,29.8,30.25,West,277,0.0,2.0,85,0.00,,,0.00,0.0,meteohub,2013-10-24 07:19:00,
2013-10-24 02:24:00,33.8,29.8,30.25,West,277,0.0,2.0,85,0.00,,,0.00,0.0,meteohub,2013-10-24 07:24:00,
2013-10-24 02:29:00,33.8,30.0,30.25,West,277,1.0,2.0,86,0.00,,,0.00,0.0,meteohub,2013-10-24 07:29:00,
2013-10-24 02:34:00,34.0,30.2,30.25,West,277,0.0,2.0,86,0.00,,,0.00,0.0,meteohub,2013-10-24 07:34:00,
2013-10-24 02:39:00,34.0,30.2,30.26,West,277,2.0,3.0,86,0.00,,,0.00,0.0,meteohub,2013-10-24 07:39:00,
2013-10-24 02:44:00,34.0,30.6,30.25,West,262,1.0,3.0,87,0.00,,,0.00,0.0,meteohub,2013-10-24 07:44:00,
2013-10-24 02:49:00,34.0,30.6,30.26,West,261,1.0,4.0,87,0.00,,,0.00,0.0,meteohub,2013-10-24 07:49:00,
2013-10-24 02:54:00,34.0,30.7,30.26,West,261,1.0,4.0,88,0.00,,,0.00,0.0,meteohub,2013-10-24 07:54:00,
2013-10-24 02:59:00,34.0,30.7,30.26,West,262,2.0,4.0,88,0.00,,,0.00,0.0,meteohub,2013-10-24 07:59:00,
2013-10-24 03:04:00,34.0,30.7,30.26,West,262,2.0,4.0,88,0.00,,,0.00,0.0,meteohub,2013-10-24 08:04:00,
2013-10-24 03:09:00,34.0,30.7,30.26,West,262,1.0,4.0,88,0.00,,,0.00,0.0,meteohub,2013-10-24 08:09:00,
2013-10-24 03:14:00,34.0,30.7,30.26,West,262,1.0,4.0,88,0.00,,,0.00,0.0,meteohub,2013-10-24 08:14:00,
2013-10-24 03:19:00,34.2,30.9,30.26,West,262,1.0,2.0,88,0.00,,,0.00,0.0,meteohub,2013-10-24 08:19:00,
2013-10-24 03:24:00,34.2,31.3,30.26,West,262,0.0,3.0,89,0.00,,,0.00,0.0,meteohub,2013-10-24 08:24:00,
2013-10-24 03:29:00,34.2,31.3,30.26,West,262,0.0,3.0,89,0.00,,,0.00,0.0,meteohub,2013-10-24 08:29:00,
2013-10-24 03:35:00,34.2,31.3,30.26,West,262,0.0,3.0,89,0.00,,,0.00,0.0,meteohub,2013-10-24 08:35:00,
2013-10-24 03:39:00,34.2,31.3,30.26,West,260,2.0,2.0,89,0.00,,,0.00,0.0,meteohub,2013-10-24 08:39:00,
2013-10-24 03:45:00,34.2,31.3,30.26,West,277,0.0,3.0,89,0.00,,,0.00,0.0,meteohub,2013-10-24 08:45:00,
2013-10-24 03:50:00,34.2,31.3,30.26,West,277,2.0,4.0,89,0.00,,,0.00,0.0,meteohub,2013-10-24 08:50:00,
2013-10-24 03:55:00,34.2,31.3,30.26,West,277,2.0,4.0,89,0.00,,,0.00,0.0,meteohub,2013-10-24 08:55:00,
2013-10-24 04:00:00,34.2,31.3,30.26,West,274,0.0,4.0,89,0.00,,,0.00,0.0,meteohub,2013-10-24 09:00:00,
2013-10-24 04:05:00,34.2,31.3,30.26,West,281,1.0,3.0,89,0.00,,,0.00,0.0,meteohub,2013-10-24 09:05:00,
2013-10-24 04:10:00,34.3,31.5,30.26,West,274,0.0,3.0,89,0.00,,,0.00,0.0,meteohub,2013-10-24 09:10:00,
2013-10-24 04:15:00,34.3,31.5,30.27,West,274,1.0,3.0,89,0.00,,,0.00,0.0,meteohub,2013-10-24 09:15:00,
2013-10-24 04:20:00,34.3,31.5,30.27,WSW,258,1.0,3.0,89,0.00,,,0.00,0.0,meteohub,2013-10-24 09:20:00,
2013-10-24 04:25:00,34.3,31.5,30.26,WSW,258,0.0,3.0,89,0.00,,,0.00,0.0,meteohub,2013-10-24 09:25:00,
2013-10-24 04:30:00,34.3,31.5,30.27,WSW,258,2.0,3.0,89,0.00,,,0.00,0.0,meteohub,2013-10-24 09:30:00,
2013-10-24 04:35:00,34.3,31.5,30.27,WSW,258,1.0,3.0,89,0.00,,,0.00,0.0,meteohub,2013-10-24 09:35:00,
2013-10-24 04:40:00,34.2,31.3,30.27,WSW,258,0.0,2.0,89,0.00,,,0.00,0.0,meteohub,2013-10-24 09:40:00,
2013-10-24 04:45:00,34.2,30.9,30.27,WSW,258,0.0,2.0,88,0.00,,,0.00,0.0,meteohub,2013-10-24 09:45:00,
2013-10-24 04:50:00,34.2,30.9,30.27,WSW,258,0.0,2.0,88,0.00,,,0.00,0.0,meteohub,2013-10-24 09:50:00,
2013-10-24 04:55:00,34.0,30.7,30.27,WSW,258,0.0,2.0,88,0.00,,,0.00,0.0,meteohub,2013-10-24 09:55:00,
2013-10-24 05:00:00,34.0,30.7,30.27,WSW,258,0.0,2.0,88,0.00,,,0.00,0.0,meteohub,2013-10-24 10:00:00,
2013-10-24 05:05:00,34.0,30.7,30.28,WSW,258,0.0,1.0,88,0.00,,,0.00,0.0,meteohub,2013-10-24 10:05:00,
2013-10-24 05:10:00,33.6,30.4,30.28,WSW,258,0.0,1.0,88,0.00,,,0.00,0.0,meteohub,2013-10-24 10:10:00,
2013-10-24 05:15:00,33.4,30.2,30.28,WSW,258,0.0,1.0,88,0.00,,,0.00,0.0,meteohub,2013-10-24 10:15:00,
2013-10-24 05:20:00,33.4,30.2,30.28,WSW,258,0.0,1.0,88,0.00,,,0.00,0.0,meteohub,2013-10-24 10:20:00,
2013-10-24 05:25:00,33.3,30.0,30.28,WSW,258,0.0,1.0,88,0.00,,,0.00,0.0,meteohub,2013-10-24 10:25:00,
2013-10-24 05:30:00,33.1,29.8,30.29,WSW,258,0.0,1.0,88,0.00,,,0.00,0.0,meteohub,2013-10-24 10:30:00,
2013-10-24 05:35:00,33.1,29.7,30.29,WSW,258,0.0,0.0,87,0.00,,,0.00,0.0,meteohub,2013-10-24 10:35:00,
2013-10-24 05:40:00,32.7,29.3,30.29,WSW,258,0.0,0.0,87,0.00,,,0.00,0.0,meteohub,2013-10-24 10:40:00,
2013-10-24 05:45:00,32.5,29.3,30.29,WSW,258,0.0,0.0,88,0.00,,,0.00,0.0,meteohub,2013-10-24 10:45:00,
2013-10-24 05:50:00,32.4,29.1,30.29,WSW,258,0.0,1.0,88,0.00,,,0.00,0.0,meteohub,2013-10-24 10:50:00,
2013-10-24 05:55:00,32.2,28.9,30.29,WSW,258,0.0,1.0,88,0.00,,,0.00,0.0,meteohub,2013-10-24 10:55:00,
2013-10-24 06:00:00,32.2,28.9,30.29,WSW,258,0.0,1.0,88,0.00,,,0.00,0.0,meteohub,2013-10-24 11:00:00,
2013-10-24 06:05:00,31.8,28.8,30.29,WSW,258,0.0,0.0,88,0.00,,,0.00,0.0,meteohub,2013-10-24 11:05:00,
2013-10-24 06:10:00,31.6,28.8,30.29,WSW,258,0.0,0.0,89,0.00,,,0.00,0.0,meteohub,2013-10-24 11:10:00,
2013-10-24 06:15:00,31.6,28.8,30.30,WSW,258,0.0,0.0,89,0.00,,,0.00,0.0,meteohub,2013-10-24 11:15:00,
2013-10-24 06:21:00,31.5,28.6,30.30,WSW,258,0.0,0.0,89,0.00,,,0.00,0.0,meteohub,2013-10-24 11:21:00,
2013-10-24 06:26:00,31.5,28.6,30.30,WSW,258,0.0,0.0,89,0.00,,,0.00,0.0,meteohub,2013-10-24 11:26:00,
2013-10-24 06:31:00,31.3,28.4,30.30,WSW,258,0.0,0.0,89,0.00,,,0.00,0.0,meteohub,2013-10-24 11:31:00,
2013-10-24 06:36:00,31.1,28.2,30.30,WSW,258,0.0,0.0,89,0.00,,,0.00,0.0,meteohub,2013-10-24 11:36:00,
2013-10-24 06:41:00,31.1,28.2,30.30,WSW,258,0.0,0.0,89,0.00,,,0.00,0.0,meteohub,2013-10-24 11:41:00,
2013-10-24 06:46:00,30.9,28.0,30.30,WSW,258,0.0,0.0,89,0.00,,,0.00,0.0,meteohub,2013-10-24 11:46:00,
2013-10-24 06:51:00,30.9,28.4,30.30,WSW,258,0.0,0.0,90,0.00,,,0.00,0.0,meteohub,2013-10-24 11:51:00,
2013-10-24 06:56:00,30.9,28.4,30.30,WSW,258,0.0,0.0,90,0.00,,,0.00,0.0,meteohub,2013-10-24 11:56:00,
2013-10-24 07:01:00,30.9,28.4,30.30,WSW,258,0.0,0.0,90,0.00,,,0.00,0.0,meteohub,2013-10-24 12:01:00,
2013-10-24 07:06:00,30.9,28.4,30.31,WSW,258,0.0,0.0,90,0.00,,,0.00,0.0,meteohub,2013-10-24 12:06:00,
2013-10-24 07:11:00,30.9,28.4,30.30,WSW,258,0.0,0.0,90,0.00,,,0.00,0.0,meteohub,2013-10-24 12:11:00,
2013-10-24 07:16:00,31.1,28.8,30.31,WSW,258,0.0,0.0,91,0.00,,,0.00,0.0,meteohub,2013-10-24 12:16:00,
2013-10-24 07:21:00,31.1,28.8,30.30,WSW,258,0.0,1.0,91,0.00,,,0.00,0.0,meteohub,2013-10-24 12:21:00,
2013-10-24 07:26:00,31.3,28.9,30.30,WSW,258,0.0,1.0,91,0.00,,,0.00,0.0,meteohub,2013-10-24 12:26:00,
2013-10-24 07:31:00,31.3,28.9,30.30,WSW,258,0.0,1.0,91,0.00,,,0.00,0.0,meteohub,2013-10-24 12:31:00,
2013-10-24 07:36:00,31.5,29.1,30.31,WSW,258,0.0,0.0,91,0.00,,,0.00,0.0,meteohub,2013-10-24 12:36:00,
2013-10-24 07:41:00,31.5,29.1,30.31,WSW,258,0.0,0.0,91,0.00,,,0.00,0.0,meteohub,2013-10-24 12:41:00,
2013-10-24 07:46:00,31.5,29.1,30.31,WSW,258,0.0,0.0,91,0.00,,,0.00,0.0,meteohub,2013-10-24 12:46:00,
2013-10-24 07:51:00,31.5,29.1,30.31,WSW,258,0.0,0.0,91,0.00,,,0.00,0.0,meteohub,2013-10-24 12:51:00,
2013-10-24 07:56:00,31.5,29.1,30.31,WSW,258,0.0,0.0,91,0.00,,,0.00,5.0,meteohub,2013-10-24 12:56:00,
2013-10-24 08:01:00,31.3,28.9,30.31,WSW,258,0.0,0.0,91,0.00,,,0.00,7.0,meteohub,2013-10-24 13:01:00,
2013-10-24 08:06:00,31.3,28.9,30.32,WSW,258,0.0,1.0,91,0.00,,,0.00,9.0,meteohub,2013-10-24 13:06:00,
2013-10-24 08:11:00,31.3,28.9,30.32,WSW,258,0.0,1.0,91,0.00,,,0.00,14.0,meteohub,2013-10-24 13:11:00,
2013-10-24 08:16:00,31.3,28.9,30.32,WSW,258,0.0,1.0,91,0.00,,,0.00,19.0,meteohub,2013-10-24 13:16:00,
2013-10-24 08:21:00,31.3,28.9,30.32,WSW,258,0.0,0.0,91,0.00,,,0.00,19.0,meteohub,2013-10-24 13:21:00,
2013-10-24 08:26:00,31.3,28.9,30.32,WSW,258,0.0,0.0,91,0.00,,,0.00,21.0,meteohub,2013-10-24 13:26:00,
2013-10-24 08:31:00,31.3,28.9,30.32,WSW,258,0.0,0.0,91,0.00,,,0.00,32.0,meteohub,2013-10-24 13:31:00,
2013-10-24 08:36:00,31.3,29.3,30.32,WSW,258,0.0,1.0,92,0.00,,,0.00,32.0,meteohub,2013-10-24 13:36:00,
2013-10-24 08:42:00,31.3,29.3,30.32,WSW,258,0.0,1.0,92,0.00,,,0.00,39.0,meteohub,2013-10-24 13:42:00,
2013-10-24 08:47:00,31.5,29.5,30.33,WSW,258,0.0,1.0,92,0.00,,,0.00,40.0,meteohub,2013-10-24 13:47:00,
2013-10-24 08:52:00,31.6,29.7,30.33,WSW,258,0.0,0.0,92,0.00,,,0.00,44.0,meteohub,2013-10-24 13:52:00,
2013-10-24 08:57:00,31.6,29.7,30.33,WSW,258,0.0,1.0,92,0.00,,,0.00,51.0,meteohub,2013-10-24 13:57:00,
2013-10-24 09:02:00,31.8,30.0,30.33,WSW,258,0.0,1.0,93,0.00,,,0.00,44.0,meteohub,2013-10-24 14:02:00,
2013-10-24 09:07:00,32.0,30.2,30.34,WSW,258,0.0,1.0,93,0.00,,,0.00,23.0,meteohub,2013-10-24 14:07:00,
2013-10-24 09:12:00,32.2,30.4,30.34,WSW,258,1.0,2.0,93,0.00,,,0.00,18.0,meteohub,2013-10-24 14:12:00,
2013-10-24 09:17:00,32.2,30.4,30.34,WSW,257,0.0,2.0,93,0.00,,,0.00,37.0,meteohub,2013-10-24 14:17:00,
2013-10-24 09:22:00,32.4,30.6,30.34,WSW,257,0.0,4.0,93,0.00,,,0.00,60.0,meteohub,2013-10-24 14:22:00,
2013-10-24 09:27:00,32.5,30.7,30.34,WSW,257,0.0,4.0,93,0.00,,,0.00,28.0,meteohub,2013-10-24 14:27:00,
2013-10-24 09:32:00,32.5,30.7,30.34,WSW,257,2.0,4.0,93,0.00,,,0.00,39.0,meteohub,2013-10-24 14:32:00,
2013-10-24 09:37:00,32.7,30.9,30.34,West,259,0.0,3.0,93,0.00,,,0.00,25.0,meteohub,2013-10-24 14:37:00,
2013-10-24 09:42:00,32.7,30.9,30.34,West,259,0.0,3.0,93,0.00,,,0.00,35.0,meteohub,2013-10-24 14:42:00,
2013-10-24 09:47:00,33.3,31.5,30.34,West,259,0.0,3.0,93,0.00,,,0.00,33.0,meteohub,2013-10-24 14:47:00,
2013-10-24 09:52:00,33.4,31.6,30.34,West,260,0.0,3.0,93,0.00,,,0.00,46.0,meteohub,2013-10-24 14:52:00,
2013-10-24 09:57:00,33.6,32.0,30.35,WNW,284,1.0,3.0,94,0.00,,,0.00,35.0,meteohub,2013-10-24 14:57:00,
2013-10-24 10:02:00,33.8,32.2,30.35,West,266,3.0,5.0,94,0.00,,,0.00,35.0,meteohub,2013-10-24 15:02:00,
2013-10-24 10:07:00,34.2,32.4,30.34,West,262,2.0,5.0,93,0.00,,,0.00,35.0,meteohub,2013-10-24 15:07:00,
2013-10-24 10:12:00,34.5,32.7,30.35,West,260,3.0,5.0,93,0.00,,,0.00,37.0,meteohub,2013-10-24 15:12:00,
2013-10-24 10:17:00,34.9,33.1,30.35,NNW,341,6.0,6.0,93,0.00,,,0.00,42.0,meteohub,2013-10-24 15:17:00,
2013-10-24 10:22:00,35.2,33.1,30.35,WSW,258,4.0,7.0,92,0.00,,,0.00,39.0,meteohub,2013-10-24 15:22:00,
2013-10-24 10:27:00,35.8,33.4,30.35,West,269,2.0,7.0,91,0.00,,,0.00,39.0,meteohub,2013-10-24 15:27:00,
2013-10-24 10:32:00,36.0,33.3,30.35,WSW,248,6.0,7.0,90,0.00,,,0.00,39.0,meteohub,2013-10-24 15:32:00,
2013-10-24 10:37:00,36.3,33.4,30.35,West,261,3.0,6.0,89,0.00,,,0.00,39.0,meteohub,2013-10-24 15:37:00,
2013-10-24 10:42:00,36.7,33.3,30.35,WSW,257,3.0,6.0,87,0.00,,,0.00,46.0,meteohub,2013-10-24 15:42:00,
2013-10-24 10:47:00,36.9,33.4,30.35,West,262,3.0,6.0,87,0.00,,,0.00,42.0,meteohub,2013-10-24 15:47:00,
2013-10-24 10:52:00,37.0,33.3,30.35,WNW,284,1.0,6.0,86,0.00,,,0.00,42.0,meteohub,2013-10-24 15:52:00,
2013-10-24 10:57:00,37.4,33.3,30.35,WSW,250,3.0,6.0,85,0.00,,,0.00,53.0,meteohub,2013-10-24 15:57:00,
2013-10-24 11:02:00,38.1,33.8,30.35,West,265,3.0,6.0,84,0.00,,,0.00,58.0,meteohub,2013-10-24 16:02:00,
2013-10-24 11:07:00,38.7,33.6,30.35,West,271,4.0,6.0,82,0.00,,,0.00,128.0,meteohub,2013-10-24 16:07:00,
2013-10-24 11:12:00,39.0,33.6,30.35,WSW,257,4.0,6.0,81,0.00,,,0.00,69.0,meteohub,2013-10-24 16:12:00,
2013-10-24 11:17:00,39.4,34.0,30.35,WSW,254,4.0,7.0,81,0.00,,,0.00,265.0,meteohub,2013-10-24 16:17:00,
2013-10-24 11:22:00,40.1,34.2,30.35,WSW,258,4.0,7.0,79,0.00,,,0.00,225.0,meteohub,2013-10-24 16:22:00,
2013-10-24 11:27:00,40.3,33.6,30.35,West,263,5.0,7.0,77,0.00,,,0.00,301.0,meteohub,2013-10-24 16:27:00,
2013-10-24 11:32:00,40.5,34.2,30.35,WSW,247,4.0,7.0,78,0.00,,,0.00,185.0,meteohub,2013-10-24 16:32:00,
2013-10-24 11:37:00,40.6,34.3,30.35,NNE,13,2.0,7.0,78,0.00,,,0.00,84.0,meteohub,2013-10-24 16:37:00,
2013-10-24 11:42:00,40.6,34.0,30.35,WSW,248,4.0,7.0,77,0.00,,,0.00,69.0,meteohub,2013-10-24 16:42:00,
2013-10-24 11:47:00,40.8,34.2,30.35,WSW,247,7.0,8.0,77,0.00,,,0.00,69.0,meteohub,2013-10-24 16:47:00,
2013-10-24 11:52:00,41.4,34.3,30.35,West,262,9.0,9.0,76,0.00,,,0.00,98.0,meteohub,2013-10-24 16:52:00,
2013-10-24 11:57:00,41.4,34.3,30.35,SW,233,1.0,10.0,76,0.00,,,0.00,100.0,meteohub,2013-10-24 16:57:00,
2013-10-24 12:02:00,41.7,34.7,30.35,WSW,254,5.0,10.0,76,0.00,,,0.00,102.0,meteohub,2013-10-24 17:02:00,
2013-10-24 12:07:00,41.5,33.8,30.35,West,273,5.0,10.0,74,0.00,,,0.00,114.0,meteohub,2013-10-24 17:07:00,
2013-10-24 12:12:00,41.5,34.2,30.35,WSW,257,2.0,8.0,75,0.00,,,0.00,179.0,meteohub,2013-10-24 17:12:00,
2013-10-24 12:17:00,41.7,34.0,30.35,WSW,247,5.0,8.0,74,0.00,,,0.00,568.0,meteohub,2013-10-24 17:17:00,
2013-10-24 12:22:00,43.0,35.2,30.35,West,275,4.0,8.0,74,0.00,,,0.00,649.0,meteohub,2013-10-24 17:22:00,
2013-10-24 12:27:00,43.3,34.9,30.35,WNW,287,2.0,7.0,72,0.00,,,0.00,109.0,meteohub,2013-10-24 17:27:00,
2013-10-24 12:32:00,42.8,34.0,30.35,WNW,298,2.0,6.0,71,0.00,,,0.00,134.0,meteohub,2013-10-24 17:32:00,
2013-10-24 12:37:00,42.8,34.7,30.35,West,260,4.0,6.0,73,0.00,,,0.00,684.0,meteohub,2013-10-24 17:37:00,
2013-10-24 12:42:00,44.1,35.6,30.35,WSW,251,4.0,7.0,72,0.00,,,0.00,151.0,meteohub,2013-10-24 17:42:00,
2013-10-24 12:47:00,43.9,34.3,30.35,WSW,245,2.0,7.0,69,0.00,,,0.00,373.0,meteohub,2013-10-24 17:47:00,
2013-10-24 12:52:00,43.9,34.3,30.35,West,261,5.0,8.0,69,0.00,,,0.00,156.0,meteohub,2013-10-24 17:52:00,
2013-10-24 12:57:00,43.3,33.4,30.35,WSW,243,4.0,11.0,68,0.00,,,0.00,153.0,meteohub,2013-10-24 17:57:00,
2013-10-24 13:02:00,43.0,33.1,30.35,West,269,5.0,11.0,68,0.00,,,0.00,134.0,meteohub,2013-10-24 18:02:00,
2013-10-24 13:07:00,42.8,33.3,30.35,West,270,2.0,11.0,69,0.00,,,0.00,666.0,meteohub,2013-10-24 18:07:00,
2013-10-24 13:12:00,44.1,34.5,30.34,West,271,5.0,10.0,69,0.00,,,0.00,612.0,meteohub,2013-10-24 18:12:00,
2013-10-24 13:17:00,44.8,34.2,30.34,West,260,3.0,7.0,66,0.00,,,0.00,439.0,meteohub,2013-10-24 18:17:00,
2013-10-24 13:22:00,45.7,34.5,30.34,WNW,298,3.0,8.0,65,0.00,,,0.00,438.0,meteohub,2013-10-24 18:22:00,
2013-10-24 13:27:00,45.3,34.3,30.34,West,263,6.0,13.0,65,0.00,,,0.00,517.0,meteohub,2013-10-24 18:27:00,
2013-10-24 13:32:00,45.7,33.8,30.34,West,270,6.0,13.0,63,0.00,,,0.00,461.0,meteohub,2013-10-24 18:32:00,
2013-10-24 13:37:00,45.5,33.6,30.34,WNW,284,5.0,13.0,63,0.00,,,0.00,446.0,meteohub,2013-10-24 18:37:00,
2013-10-24 13:42:00,45.1,34.2,30.34,West,267,9.0,11.0,65,0.00,,,0.00,466.0,meteohub,2013-10-24 18:42:00,
2013-10-24 13:47:00,45.3,34.3,30.34,North,11,4.0,11.0,65,0.00,,,0.00,513.0,meteohub,2013-10-24 18:47:00,
2013-10-24 13:52:00,45.7,34.5,30.33,West,267,8.0,10.0,65,0.00,,,0.00,533.0,meteohub,2013-10-24 18:52:00,
2013-10-24 13:57:00,45.7,33.8,30.33,NW,319,5.0,11.0,63,0.00,,,0.00,271.0,meteohub,2013-10-24 18:57:00,
2013-10-24 14:02:00,46.0,33.8,30.33,WNW,294,4.0,12.0,62,0.00,,,0.00,457.0,meteohub,2013-10-24 19:02:00,
2013-10-24 14:07:00,46.4,34.9,30.33,WNW,290,3.0,12.0,64,0.00,,,0.00,413.0,meteohub,2013-10-24 19:07:00,
2013-10-24 14:12:00,46.6,35.1,30.33,West,272,6.0,8.0,64,0.00,,,0.00,578.0,meteohub,2013-10-24 19:12:00,
2013-10-24 14:17:00,46.4,34.2,30.33,West,272,6.0,11.0,62,0.00,,,0.00,643.0,meteohub,2013-10-24 19:17:00,
2013-10-24 14:22:00,45.9,34.0,30.33,NNW,348,2.0,11.0,63,0.00,,,0.00,287.0,meteohub,2013-10-24 19:22:00,
2013-10-24 14:27:00,44.8,33.8,30.33,West,261,7.0,11.0,65,0.00,,,0.00,287.0,meteohub,2013-10-24 19:27:00,
2013-10-24 14:32:00,44.6,33.3,30.33,NW,310,1.0,8.0,64,0.00,,,0.00,459.0,meteohub,2013-10-24 19:32:00,
2013-10-24 14:37:00,45.3,34.3,30.34,North,355,6.0,8.0,65,0.00,,,0.00,452.0,meteohub,2013-10-24 19:37:00,
2013-10-24 14:42:00,45.1,33.3,30.33,SW,234,2.0,9.0,63,0.00,,,0.00,478.0,meteohub,2013-10-24 19:42:00,
2013-10-24 14:47:00,44.1,32.7,30.33,West,266,3.0,9.0,64,0.00,,,0.00,60.0,meteohub,2013-10-24 19:47:00,
2013-10-24 14:52:00,43.7,32.7,30.33,West,262,5.0,9.0,65,0.00,,,0.00,515.0,meteohub,2013-10-24 19:52:00,
2013-10-24 14:57:00,43.9,32.9,30.34,West,267,4.0,9.0,65,0.00,,,0.00,469.0,meteohub,2013-10-24 19:57:00,
2013-10-24 15:02:00,44.1,34.2,30.34,West,269,5.0,11.0,68,0.00,,,0.00,455.0,meteohub,2013-10-24 20:02:00,
2013-10-24 15:07:00,44.2,34.0,30.34,SW,229,5.0,11.0,67,0.00,,,0.00,490.0,meteohub,2013-10-24 20:07:00,
2013-10-24 15:12:00,44.2,34.0,30.34,NNE,27,4.0,8.0,67,0.00,,,0.00,439.0,meteohub,2013-10-24 20:12:00,
2013-10-24 15:17:00,44.4,34.2,30.34,West,271,6.0,8.0,67,0.00,,,0.00,411.0,meteohub,2013-10-24 20:17:00,
2013-10-24 15:22:00,43.9,34.0,30.34,WSW,252,6.0,10.0,68,0.00,,,0.00,429.0,meteohub,2013-10-24 20:22:00,
2013-10-24 15:27:00,43.5,33.3,30.34,West,268,4.0,10.0,67,0.00,,,0.00,301.0,meteohub,2013-10-24 20:27:00,
2013-10-24 15:32:00,43.9,33.6,30.35,West,280,4.0,10.0,67,0.00,,,0.00,376.0,meteohub,2013-10-24 20:32:00,
2013-10-24 15:37:00,43.7,33.1,30.34,WNW,288,0.0,9.0,66,0.00,,,0.00,306.0,meteohub,2013-10-24 20:37:00,
2013-10-24 15:42:00,43.0,32.4,30.35,NNW,332,7.0,9.0,66,0.00,,,0.00,258.0,meteohub,2013-10-24 20:42:00,
2013-10-24 15:47:00,42.8,32.2,30.34,NNW,346,9.0,11.0,66,0.00,,,0.00,248.0,meteohub,2013-10-24 20:47:00,
2013-10-24 15:52:00,43.0,32.4,30.35,NNW,347,5.0,11.0,66,0.00,,,0.00,93.0,meteohub,2013-10-24 20:52:00,
2013-10-24 15:57:00,42.6,32.0,30.35,WSW,258,2.0,10.0,66,0.00,,,0.00,113.0,meteohub,2013-10-24 20:57:00,
2013-10-24 16:02:00,42.4,31.1,30.35,North,11,6.0,11.0,64,0.00,,,0.00,174.0,meteohub,2013-10-24 21:02:00,
2013-10-24 16:07:00,42.4,32.2,30.35,WNW,287,3.0,11.0,67,0.00,,,0.00,107.0,meteohub,2013-10-24 21:07:00,
2013-10-24 16:12:00,42.3,31.3,30.35,WSW,257,3.0,13.0,65,0.00,,,0.00,44.0,meteohub,2013-10-24 21:12:00,
2013-10-24 16:17:00,42.1,31.5,30.35,NW,305,3.0,13.0,66,0.00,,,0.00,56.0,meteohub,2013-10-24 21:17:00,
2013-10-24 16:22:00,42.4,31.5,30.35,NNW,335,6.0,13.0,65,0.00,,,0.00,76.0,meteohub,2013-10-24 21:22:00,
2013-10-24 16:27:00,42.3,30.9,30.35,NW,315,1.0,9.0,64,0.00,,,0.00,79.0,meteohub,2013-10-24 21:27:00,
2013-10-24 16:32:00,41.9,31.5,30.35,ENE,61,4.0,9.0,66,0.00,,,0.00,37.0,meteohub,2013-10-24 21:32:00,
2013-10-24 16:37:00,41.7,31.6,30.35,West,265,4.0,11.0,67,0.00,,,0.00,42.0,meteohub,2013-10-24 21:37:00,
2013-10-24 16:42:00,42.1,31.5,30.35,NW,318,1.0,11.0,66,0.00,,,0.00,53.0,meteohub,2013-10-24 21:42:00,
2013-10-24 16:47:00,42.3,31.6,30.35,WNW,302,1.0,11.0,66,0.00,,,0.00,44.0,meteohub,2013-10-24 21:47:00,
2013-10-24 16:52:00,42.4,31.8,30.35,North,351,1.0,7.0,66,0.00,,,0.00,46.0,meteohub,2013-10-24 21:52:00,
2013-10-24 16:57:00,42.3,32.5,30.35,NNW,334,3.0,7.0,68,0.00,,,0.00,44.0,meteohub,2013-10-24 21:57:00,
2013-10-24 17:02:00,42.3,30.9,30.35,NW,313,4.0,7.0,64,0.00,,,0.00,35.0,meteohub,2013-10-24 22:02:00,
2013-10-24 17:07:00,42.1,31.1,30.35,West,260,3.0,9.0,65,0.00,,,0.00,32.0,meteohub,2013-10-24 22:07:00,
2013-10-24 17:12:00,41.7,30.7,30.35,NNW,334,2.0,10.0,65,0.00,,,0.00,30.0,meteohub,2013-10-24 22:12:00,
2013-10-24 17:17:00,41.5,30.2,30.35,WNW,283,4.0,10.0,64,0.00,,,0.00,28.0,meteohub,2013-10-24 22:17:00,
2013-10-24 17:22:00,41.4,30.6,30.35,WNW,290,4.0,9.0,65,0.00,,,0.00,39.0,meteohub,2013-10-24 22:22:00,
2013-10-24 17:27:00,41.2,30.7,30.35,West,262,3.0,7.0,66,0.00,,,0.00,35.0,meteohub,2013-10-24 22:27:00,
2013-10-24 17:32:00,40.8,30.0,30.35,WNW,293,2.0,7.0,65,0.00,,,0.00,30.0,meteohub,2013-10-24 22:32:00,
2013-10-24 17:37:00,40.6,30.2,30.35,WNW,287,1.0,9.0,66,0.00,,,0.00,25.0,meteohub,2013-10-24 22:37:00,
2013-10-24 17:42:00,40.5,30.0,30.35,West,269,4.0,9.0,66,0.00,,,0.00,21.0,meteohub,2013-10-24 22:42:00,
2013-10-24 17:47:00,40.3,30.2,30.36,NW,320,2.0,7.0,67,0.00,,,0.00,19.0,meteohub,2013-10-24 22:47:00,
2013-10-24 17:52:00,39.9,29.8,30.36,WSW,250,0.0,7.0,67,0.00,,,0.00,18.0,meteohub,2013-10-24 22:52:00,
2013-10-24 17:57:00,39.7,30.0,30.36,WNW,284,1.0,7.0,68,0.00,,,0.00,16.0,meteohub,2013-10-24 22:57:00,
2013-10-24 18:02:00,39.6,29.8,30.36,West,263,3.0,7.0,68,0.00,,,0.00,12.0,meteohub,2013-10-24 23:02:00,
2013-10-24 18:07:00,39.4,29.7,30.36,West,270,2.0,5.0,68,0.00,,,0.00,11.0,meteohub,2013-10-24 23:07:00,
2013-10-24 18:12:00,39.0,29.3,30.36,West,261,3.0,5.0,68,0.00,,,0.00,9.0,meteohub,2013-10-24 23:12:00,
2013-10-24 18:17:00,38.8,29.5,30.36,West,263,2.0,5.0,69,0.00,,,0.00,7.0,meteohub,2013-10-24 23:17:00,
2013-10-24 18:22:00,38.5,29.1,30.36,West,274,0.0,5.0,69,0.00,,,0.00,5.0,meteohub,2013-10-24 23:22:00,
2013-10-24 18:27:00,38.1,29.5,30.36,West,270,0.0,5.0,71,0.00,,,0.00,0.0,meteohub,2013-10-24 23:27:00,
2013-10-24 18:32:00,37.8,29.5,30.36,West,269,0.0,4.0,72,0.00,,,0.00,0.0,meteohub,2013-10-24 23:32:00,
2013-10-24 18:37:00,37.2,29.3,30.36,West,277,1.0,4.0,73,0.00,,,0.00,0.0,meteohub,2013-10-24 23:37:00,
2013-10-24 18:42:00,37.0,29.5,30.36,NNW,341,1.0,4.0,74,0.00,,,0.00,0.0,meteohub,2013-10-24 23:42:00,
2013-10-24 18:47:00,36.7,29.5,30.36,NNW,341,0.0,4.0,75,0.00,,,0.00,0.0,meteohub,2013-10-24 23:47:00,
2013-10-24 18:52:00,36.3,29.5,30.36,West,266,0.0,4.0,76,0.00,,,0.00,0.0,meteohub,2013-10-24 23:52:00,
2013-10-24 18:57:00,36.0,29.1,30.36,West,266,0.0,4.0,76,0.00,,,0.00,0.0,meteohub,2013-10-24 23:57:00,
2013-10-24 19:02:00,35.4,28.9,30.36,West,266,0.0,3.0,77,0.00,,,0.00,0.0,meteohub,2013-10-25 00:02:00,
2013-10-24 19:07:00,35.1,28.6,30.36,West,266,0.0,0.0,77,0.00,,,0.00,0.0,meteohub,2013-10-25 00:07:00,
2013-10-24 19:12:00,34.9,28.4,30.37,West,266,0.0,0.0,77,0.00,,,0.00,0.0,meteohub,2013-10-25 00:12:00,
2013-10-24 19:17:00,34.5,28.4,30.37,West,266,0.0,0.0,78,0.00,,,0.00,0.0,meteohub,2013-10-25 00:17:00,
2013-10-24 19:22:00,34.3,28.6,30.37,West,266,0.0,0.0,79,0.00,,,0.00,0.0,meteohub,2013-10-25 00:22:00,
2013-10-24 19:27:00,34.0,28.2,30.37,West,266,0.0,0.0,79,0.00,,,0.00,0.0,meteohub,2013-10-25 00:27:00,
2013-10-24 19:32:00,34.0,28.4,30.37,NW,322,0.0,2.0,80,0.00,,,0.00,0.0,meteohub,2013-10-25 00:32:00,
2013-10-24 19:37:00,34.0,28.4,30.37,NW,322,0.0,2.0,80,0.00,,,0.00,0.0,meteohub,2013-10-25 00:37:00,
2013-10-24 19:42:00,33.6,28.0,30.37,NW,322,0.0,2.0,80,0.00,,,0.00,0.0,meteohub,2013-10-25 00:42:00,
2013-10-24 19:47:00,33.6,28.4,30.37,NNW,339,0.0,1.0,81,0.00,,,0.00,0.0,meteohub,2013-10-25 00:47:00,
2013-10-24 19:52:00,34.0,28.8,30.37,NNW,339,0.0,2.0,81,0.00,,,0.00,0.0,meteohub,2013-10-25 00:52:00,
2013-10-24 19:57:00,34.2,28.4,30.37,NNW,333,0.0,3.0,79,0.00,,,0.00,0.0,meteohub,2013-10-25 00:57:00,
2013-10-24 20:02:00,34.2,28.4,30.38,NNW,333,0.0,3.0,79,0.00,,,0.00,0.0,meteohub,2013-10-25 01:02:00,
2013-10-24 20:07:00,34.0,28.2,30.37,NNW,333,0.0,3.0,79,0.00,,,0.00,0.0,meteohub,2013-10-25 01:07:00,
2013-10-24 20:12:00,33.6,28.0,30.38,NNW,333,0.0,1.0,80,0.00,,,0.00,0.0,meteohub,2013-10-25 01:12:00,
2013-10-24 20:17:00,33.3,28.0,30.38,NNW,333,0.0,1.0,81,0.00,,,0.00,0.0,meteohub,2013-10-25 01:17:00,
2013-10-24 20:22:00,33.1,27.9,30.38,NNW,333,0.0,1.0,81,0.00,,,0.00,0.0,meteohub,2013-10-25 01:22:00,
2013-10-24 20:27:00,32.5,27.7,30.38,NNW,333,0.0,1.0,82,0.00,,,0.00,0.0,meteohub,2013-10-25 01:27:00,
2013-10-24 20:32:00,32.7,27.9,30.38,NNW,333,0.0,0.0,82,0.00,,,0.00,0.0,meteohub,2013-10-25 01:32:00,
2013-10-24 20:37:00,32.7,27.9,30.38,NNW,333,0.0,1.0,82,0.00,,,0.00,0.0,meteohub,2013-10-25 01:37:00,
2013-10-24 20:42:00,32.5,27.7,30.38,NNW,333,0.0,1.0,82,0.00,,,0.00,0.0,meteohub,2013-10-25 01:42:00,
2013-10-24 20:47:00,32.2,27.7,30.38,NNW,333,0.0,1.0,83,0.00,,,0.00,0.0,meteohub,2013-10-25 01:47:00,
2013-10-24 20:52:00,31.8,27.5,30.38,NNW,333,0.0,0.0,84,0.00,,,0.00,0.0,meteohub,2013-10-25 01:52:00,
2013-10-24 20:57:00,31.8,27.5,30.38,East,92,0.0,2.0,84,0.00,,,0.00,0.0,meteohub,2013-10-25 01:57:00,
2013-10-24 21:02:00,31.8,27.5,30.38,East,92,0.0,2.0,84,0.00,,,0.00,0.0,meteohub,2013-10-25 02:02:00,
2013-10-24 21:07:00,31.6,27.3,30.38,East,92,0.0,2.0,84,0.00,,,0.00,0.0,meteohub,2013-10-25 02:07:00,
2013-10-24 21:12:00,31.5,27.1,30.38,East,92,0.0,0.0,84,0.00,,,0.00,0.0,meteohub,2013-10-25 02:12:00,
2013-10-24 21:17:00,31.5,27.1,30.38,East,92,0.0,0.0,84,0.00,,,0.00,0.0,meteohub,2013-10-25 02:17:00,
2013-10-24 21:22:00,31.3,27.3,30.38,East,92,0.0,0.0,85,0.00,,,0.00,0.0,meteohub,2013-10-25 02:22:00,
2013-10-24 21:27:00,31.5,27.5,30.38,East,92,0.0,0.0,85,0.00,,,0.00,0.0,meteohub,2013-10-25 02:27:00,
2013-10-24 21:32:00,31.5,27.1,30.38,East,92,0.0,0.0,84,0.00,,,0.00,0.0,meteohub,2013-10-25 02:32:00,
2013-10-24 21:37:00,31.5,27.1,30.38,East,92,0.0,0.0,84,0.00,,,0.00,0.0,meteohub,2013-10-25 02:37:00,
2013-10-24 21:42:00,31.6,27.1,30.38,East,92,0.0,0.0,83,0.00,,,0.00,0.0,meteohub,2013-10-25 02:42:00,
2013-10-24 21:47:00,31.5,27.1,30.38,East,92,0.0,0.0,84,0.00,,,0.00,0.0,meteohub,2013-10-25 02:47:00,
2013-10-24 21:52:00,30.9,26.6,30.38,East,92,0.0,0.0,84,0.00,,,0.00,0.0,meteohub,2013-10-25 02:52:00,
2013-10-24 21:57:00,30.6,26.6,30.38,East,92,0.0,0.0,85,0.00,,,0.00,0.0,meteohub,2013-10-25 02:57:00,
2013-10-24 22:02:00,30.6,26.6,30.38,East,92,0.0,0.0,85,0.00,,,0.00,0.0,meteohub,2013-10-25 03:02:00,
2013-10-24 22:07:00,30.6,27.0,30.39,East,92,0.0,0.0,86,0.00,,,0.00,0.0,meteohub,2013-10-25 03:07:00,
2013-10-24 22:12:00,30.4,26.8,30.39,East,92,0.0,0.0,86,0.00,,,0.00,0.0,meteohub,2013-10-25 03:12:00,
2013-10-24 22:17:00,30.6,27.0,30.39,East,92,0.0,0.0,86,0.00,,,0.00,0.0,meteohub,2013-10-25 03:17:00,
2013-10-24 22:22:00,30.6,27.0,30.39,East,92,0.0,0.0,86,0.00,,,0.00,0.0,meteohub,2013-10-25 03:22:00,
2013-10-24 22:27:00,30.7,27.1,30.39,East,92,0.0,0.0,86,0.00,,,0.00,0.0,meteohub,2013-10-25 03:27:00,
2013-10-24 22:32:00,30.7,27.1,30.39,East,92,0.0,0.0,86,0.00,,,0.00,0.0,meteohub,2013-10-25 03:32:00,
2013-10-24 22:37:00,30.0,26.4,30.40,East,92,0.0,0.0,86,0.00,,,0.00,0.0,meteohub,2013-10-25 03:37:00,
2013-10-24 22:42:00,29.5,26.1,30.40,East,92,0.0,0.0,87,0.00,,,0.00,0.0,meteohub,2013-10-25 03:42:00,
2013-10-24 22:47:00,28.9,25.9,30.39,East,92,0.0,0.0,88,0.00,,,0.00,0.0,meteohub,2013-10-25 03:47:00,
2013-10-24 22:52:00,28.9,26.1,30.39,East,92,0.0,0.0,89,0.00,,,0.00,0.0,meteohub,2013-10-25 03:52:00,
2013-10-24 22:57:00,28.9,26.1,30.40,East,92,0.0,0.0,89,0.00,,,0.00,0.0,meteohub,2013-10-25 03:57:00,
2013-10-24 23:01:00,29.1,26.2,30.40,East,92,0.0,0.0,89,0.00,,,0.00,0.0,meteohub,2013-10-25 04:01:00,
2013-10-24 23:06:00,29.1,26.2,30.40,East,92,0.0,0.0,89,0.00,,,0.00,0.0,meteohub,2013-10-25 04:06:00,
2013-10-24 23:11:00,29.1,26.2,30.40,East,92,0.0,1.0,89,0.00,,,0.00,0.0,meteohub,2013-10-25 04:11:00,
2013-10-24 23:16:00,29.1,26.1,30.40,East,92,0.0,1.0,88,0.00,,,0.00,0.0,meteohub,2013-10-25 04:16:00,
2013-10-24 23:21:00,29.1,26.1,30.40,East,92,0.0,1.0,88,0.00,,,0.00,0.0,meteohub,2013-10-25 04:21:00,
2013-10-24 23:26:00,29.1,25.7,30.40,East,92,0.0,0.0,87,0.00,,,0.00,0.0,meteohub,2013-10-25 04:26:00,
2013-10-24 23:31:00,29.1,25.7,30.40,East,93,0.0,1.0,87,0.00,,,0.00,0.0,meteohub,2013-10-25 04:31:00,
2013-10-24 23:37:00,28.8,25.3,30.40,East,93,0.0,1.0,87,0.00,,,0.00,0.0,meteohub,2013-10-25 04:37:00,
2013-10-24 23:42:00,28.6,25.2,30.40,East,93,0.0,1.0,87,0.00,,,0.00,0.0,meteohub,2013-10-25 04:42:00,
2013-10-24 23:47:00,28.6,25.2,30.40,East,93,0.0,0.0,87,0.00,,,0.00,0.0,meteohub,2013-10-25 04:47:00,
2013-10-24 23:52:00,28.4,25.3,30.39,East,93,0.0,0.0,88,0.00,,,0.00,0.0,meteohub,2013-10-25 04:52:00,
2013-10-24 23:57:00,28.2,24.8,30.40,East,93,0.0,0.0,87,0.00,,,0.00,0.0,meteohub,2013-10-25 04:57:00,